Location: Central Falls
(41.8900°N, 71.3929°W)
Time: 10:38:35
(UTC+00:00)

A-11 Canister half - Pass Details

Date: 09 December 2023
Orbit: 1512 x 1687 km, 47.2° (Epoch: 20 February)

Event Time Altitude Azimuth Distance (km) Brightness Sun altitude
Rises 08:24:38 0° 291° (WNW) 4,807 - -39.4°
Reaches altitude 10° 08:27:42 10° 293° (WNW) 3,844 - -38.9°
Exits shadow 08:37:13 79° 351° (N) 1,685 9.0 -37.1°
Maximum altitude 08:37:37 81° 21° (NNE) 1,680 9.0 -37.0°
Drops below altitude 10° 08:47:49 10° 109° (ESE) 3,942 11.8 -35.1°
Sets 08:51:00 0° 110° (ESE) 4,935 12.6 -34.5°
